| time (UTC) | temp F | wind direction | speed knots | gust knots | rain 1hr in | rain 24hr in | rain mn in | humidity % | barometer mb |
| 20260507170703 | 52 | 293 | 2.6 | 4.3 | 0.00 | 0.28 | 0.28 | 89 | 999.3 |
| 20260507170202 | 52 | 298 | 1.7 | 1.7 | 0.00 | 0.28 | 0.28 | 90 | 999.0 |
| 20260507160703 | 51 | 272 | 0.0 | 1.7 | 0.00 | 0.28 | 0.28 | 93 | 999.0 |
| 20260507160203 | 51 | 272 | 1.7 | 1.7 | 0.00 | 0.28 | 0.28 | 93 | 999.3 |
| 20260507150703 | 50 | 85 | 0.0 | 0.9 | 0.02 | 0.28 | 0.28 | 93 | 999.3 |
| 20260507150203 | 50 | 84 | 0.9 | 1.7 | 0.02 | 0.28 | 0.28 | 93 | 999.0 |
| 20260507140704 | 53 | 114 | 0.0 | 0.0 | 0.04 | 0.26 | 0.26 | 91 | 1000.3 |
| 20260507140203 | 53 | 114 | 0.0 | 2.6 | 0.04 | 0.26 | 0.26 | 90 | 1000.3 |
| 20260507130704 | 54 | 265 | 2.6 | 2.6 | 0.00 | 0.22 | 0.22 | 86 | 1000.3 |
| 20260507130204 | 54 | 271 | 1.7 | 1.7 | 0.00 | 0.22 | 0.22 | 86 | 1000.0 |
| 20260507120703 | 53 | 269 | 1.7 | 1.7 | 0.00 | 0.22 | 0.22 | 87 | 1000.0 |
| 20260507120206 | 53 | 268 | 1.7 | 6.1 | 0.00 | 0.22 | 0.22 | 87 | 999.9 |
| 20260507110703 | 53 | 247 | 5.2 | 6.1 | 0.00 | 0.22 | 0.22 | 89 | 998.6 |
| 20260507100705 | 55 | 288 | 5.2 | 5.2 | 0.01 | 0.22 | 0.22 | 88 | 1000.0 |
| 20260507100204 | 55 | 272 | 1.7 | 7.0 | 0.01 | 0.22 | 0.22 | 88 | 1000.0 |
| 20260507090704 | 55 | 243 | 4.3 | 6.1 | 0.05 | 0.21 | 0.21 | 92 | 999.3 |
| 20260507090203 | 55 | 241 | 4.3 | 8.7 | 0.05 | 0.21 | 0.21 | 92 | 999.0 |
| 20260507080703 | 55 | 222 | 2.6 | 6.1 | 0.06 | 0.16 | 0.16 | 93 | 1000.0 |
| 20260507080203 | 54 | 248 | 4.3 | 7.0 | 0.07 | 0.16 | 0.16 | 93 | 999.7 |
| 20260507070703 | 55 | 254 | 5.2 | 5.2 | 0.06 | 0.10 | 0.10 | 91 | 1001.0 |
| 20260507070202 | 55 | 254 | 3.5 | 7.8 | 0.06 | 0.10 | 0.10 | 91 | 1001.3 |
| 20260507050703 | 56 | 255 | 4.3 | 6.1 | 0.02 | 0.02 | 0.02 | 87 | 1004.1 |
| 20260507050203 | 57 | 229 | 5.2 | 13.0 | 0.02 | 0.02 | 0.02 | 86 | 1004.4 |
| 20260507040703 | 58 | 228 | 4.3 | 7.0 | 0.00 | 0.00 | 0.00 | 81 | 1005.1 |
| 20260507040203 | 58 | 161 | 6.1 | 8.7 | 0.00 | 0.00 | 0.00 | 81 | 1005.4 |
| 20260507030703 | 58 | 172 | 2.6 | 4.3 | 0.00 | 0.00 | 0.00 | 83 | 1006.4 |
| 20260507030203 | 57 | 227 | 0.9 | 7.0 | 0.00 | 0.00 | 0.00 | 83 | 1006.4 |
| 20260507020703 | 59 | 198 | 6.1 | 7.0 | 0.00 | 0.00 | 0.00 | 81 | 1007.5 |
| 20260507020203 | 60 | 252 | 5.2 | 7.8 | 0.00 | 0.00 | 0.00 | 80 | 1007.5 |
| 20260507010703 | 60 | 268 | 4.3 | 7.0 | 0.00 | 0.00 | 0.00 | 78 | 1008.8 |
| 20260507010204 | 60 | 236 | 6.1 | 12.2 | 0.00 | 0.00 | 0.00 | 78 | 1008.8 |
| 20260507000703 | 63 | 178 | 6.1 | 7.0 | 0.00 | 0.00 | 0.00 | 71 | 1008.8 |
| 20260507000205 | 63 | 235 | 5.2 | 10.4 | 0.00 | 0.00 | 0.00 | 71 | 1008.8 |
| 20260506230704 | 64 | 241 | 4.3 | 6.1 | 0.00 | 0.00 | 0.00 | 67 | 1008.5 |
| 20260506230204 | 64 | 246 | 6.1 | 11.3 | 0.00 | 0.00 | 0.00 | 67 | 1008.4 |
| 20260506220702 | 66 | 244 | 6.1 | 15.6 | 0.00 | 0.00 | 0.00 | 63 | 1008.1 |
| 20260506220201 | 66 | 143 | 11.3 | 15.6 | 0.00 | 0.00 | 0.00 | 63 | 1008.1 |
| 20260506210702 | 67 | 222 | 7.8 | 12.2 | 0.00 | 0.00 | 0.00 | 60 | 1008.1 |
| 20260506210204 | 67 | 280 | 10.4 | 13.0 | 0.00 | 0.00 | 0.00 | 60 | 1008.1 |
| 20260506200703 | 68 | 268 | 10.4 | 13.0 | 0.00 | 0.00 | 0.00 | 59 | 1007.8 |
| 20260506200203 | 68 | 247 | 11.3 | 17.4 | 0.00 | 0.00 | 0.00 | 60 | 1007.5 |
| 20260506190702 | 68 | 253 | 6.1 | 7.8 | 0.00 | 0.00 | 0.00 | 63 | 1008.1 |
| 20260506190202 | 68 | 254 | 6.1 | 13.0 | 0.00 | 0.00 | 0.00 | 63 | 1008.1 |
| 20260506180703 | 67 | 227 | 6.1 | 7.8 | 0.00 | 0.00 | 0.00 | 67 | 1008.5 |
| 20260506180202 | 67 | 257 | 7.8 | 14.8 | 0.00 | 0.00 | 0.00 | 66 | 1008.7 |